Location: Anaheim
(33.8350°N, 117.9140°W)
Time: 04:08:55
(UTC-07:00)

Amateur Radio Satellites - All Passes

Search period start: 30 May 2017 03:38
Search period end: 31 May 2017 03:38
Location: Anaheim, 33.8350°N, 117.9140°W

Satellite Date Start Highest point End Downlink Frequencies (MHz)
Time Altitude Azimuth
ITUPSAT 1 30 May 03:39:13 03:43:46 45° 260° (W) 03:48:22 437.325
KKS-1 30 May 03:44:15 03:46:28 14° 66° (ENE) 03:48:41 437.445
SRMSAT 30 May 03:45:12 03:48:16 14° 167° (SSE) 03:51:19 437.500
AO-7 30 May 03:54:41 04:02:40 47° 101° (ESE) 04:10:36 .
BEESAT 30 May 04:11:18 04:14:48 20° 265° (W) 04:18:18 436.000
CUBESAT XI-V 30 May 04:14:05 04:18:24 37° 72° (ENE) 04:22:45 437.345
ITAMSAT 1 30 May 04:31:13 04:36:25 72° 286° (WNW) 04:41:37 435.822/435.867
AO-85 30 May 04:37:30 04:40:41 21° 306° (NW) 04:43:46 145.980
BEESAT 2 30 May 04:45:16 04:49:06 52° 115° (ESE) 04:53:00 435.950
JUGNU 30 May 04:45:40 04:49:39 19° 187° (S) 04:53:39 437.505
BEESAT 3 30 May 04:56:30 05:00:08 35° 303° (WNW) 05:03:49 437.485
MOZHAYETS 4 30 May 04:57:42 04:59:12 11° 268° (W) 05:00:41
KKS-1 30 May 05:18:21 05:22:35 45° 260° (W) 05:26:50 437.445
PCSat 30 May 05:20:15 05:24:24 23° 254° (WSW) 05:28:32 145.827
SRMSAT 30 May 05:32:27 05:36:45 20° 177° (S) 05:41:03 437.500
STARS 30 May 05:37:39 05:41:59 68° 258° (WSW) 05:46:20 437.465
AO-7 30 May 05:47:49 05:55:07 35° 297° (WNW) 06:02:26 .
CUBESAT XI-V 30 May 05:52:42 05:55:50 18° 266° (W) 05:58:59 437.345
SO-50 30 May 05:53:54 05:57:18 21° 52° (NE) 06:00:42 436.795
RS-15 30 May 05:57:55 06:03:20 13° 347° (NNW) 06:08:44 29.354- 29.394
XW-2D 30 May 06:03:43 06:06:00 15° 94° (E) 06:08:15 145.860 - 145.880
NUDT-PHONESAT 30 May 06:08:20 06:09:51 12° 93° (E) 06:11:23 437.300
XW-2B 30 May 06:11:24 06:14:07 18° 95° (E) 06:16:49 145.730 - 145.750
XW-2F 30 May 06:20:40 06:23:47 23° 96° (E) 06:26:51 145.980 - 146.000
KAITUO 1B 30 May 06:21:34 06:24:19 19° 95° (E) 06:27:02 145.475/437.950
XW-2C 30 May 06:24:45 06:28:05 28° 97° (E) 06:31:24 145.795 - 145.815
BEESAT 2 30 May 06:25:27 06:27:09 12° 311° (NW) 06:28:52 435.950
JUGNU 30 May 06:36:35 06:37:57 11° 196° (SSW) 06:39:20 437.505
DOVE 4 30 May 06:40:07 06:44:22 87° 283° (WNW) 06:48:48 437.250
CUTE-I 30 May 06:55:31 07:00:47 57° 101° (E) 07:06:02 437.470
NO-84 30 May 06:58:42 07:03:04 76° 130° (SE) 07:07:27 435.350 FM
HO-68 30 May 06:59:39 07:04:11 18° 93° (E) 07:08:42 435.675
LilacSat-2 30 May 07:07:11 07:11:02 68° 283° (WNW) 07:14:51 437.200
STRAND 1 30 May 07:14:37 07:19:34 55° 74° (ENE) 07:24:34 437.568
SRMSAT 30 May 07:21:11 07:25:17 19° 187° (S) 07:29:23 437.500
SO-50 30 May 07:33:41 07:37:49 36° 247° (WSW) 07:41:58 436.795
XW-2D 30 May 07:36:53 07:40:11 28° 288° (WNW) 07:43:27 145.860 - 145.880
SEEDS 30 May 07:38:36 07:41:24 17° 94° (E) 07:44:12 437.485
NUDT-PHONESAT 30 May 07:40:26 07:43:50 33° 286° (WNW) 07:47:13 437.300
XW-2B 30 May 07:45:09 07:48:13 23° 288° (WNW) 07:51:16 145.730 - 145.750
XW-2F 30 May 07:55:03 07:57:42 18° 290° (WNW) 08:00:22 145.980 - 146.000
KAITUO 1B 30 May 07:55:17 07:58:13 22° 289° (WNW) 08:01:07 145.475/437.950
XW-2C 30 May 07:59:41 08:02:00 16° 291° (WNW) 08:04:18 145.795 - 145.815
M-CUBED/EXP-1 PRIME 30 May 08:00:35 08:04:19 32° 69° (ENE) 08:07:48 437.505
RS-15 30 May 08:16:08 08:23:37 17° 25° (NNE) 08:30:54 29.354- 29.394
CUBEBUG 2 30 May 08:16:59 08:21:25 41° 98° (E) 08:25:53 437.445
UWE-3 30 May 08:18:58 08:22:48 25° 96° (E) 08:26:39 435.000/436.395/437.385
AAUSAT CUBESAT 2 30 May 08:25:01 08:28:34 28° 97° (E) 08:32:05 437.432
CUTE 1.7 + AOD 2 30 May 08:31:54 08:36:05 59° 284° (WNW) 08:40:13 437.475
Oscar 11 30 May 08:35:49 08:37:55 13° 93° (E) 08:40:01 .
CUTE-I 30 May 08:37:12 08:40:18 16° 295° (WNW) 08:43:25 437.470
XW-2A 30 May 08:38:05 08:41:24 45° 285° (WNW) 08:44:41 145.665 - 145.685
NO-84 30 May 08:38:15 08:41:05 17° 326° (NW) 08:43:54 435.350 FM
HO-68 30 May 08:45:13 08:52:23 71° 288° (WNW) 08:59:30 435.675
STRAND 1 30 May 08:56:32 08:59:02 14° 267° (W) 09:01:32 437.568
TIGRISAT 30 May 09:01:33 09:02:48 11° 65° (ENE) 09:04:05 435.000
AO-73 30 May 09:05:46 09:10:07 42° 98° (E) 09:14:26 145.935
SRMSAT 30 May 09:11:57 09:13:45 11° 196° (SSW) 09:15:32 437.500
SEEDS 30 May 09:13:26 09:17:06 29° 288° (WNW) 09:20:42 437.485
ZACube-1 30 May 09:22:09 09:26:45 75° 101° (ESE) 09:31:19 437.345
UNISAT 6 30 May 09:31:51 09:35:31 28° 71° (ENE) 09:39:15 437.425
M-CUBED/EXP-1 PRIME 30 May 09:36:04 09:38:42 16° 259° (W) 09:41:15 437.505
DELFI C3 30 May 09:41:12 09:43:58 18° 95° (E) 09:46:44 145.870
CUBEBUG 2 30 May 09:54:42 09:57:39 17° 292° (WNW) 10:00:39 437.445
UWE-3 30 May 09:55:17 09:59:07 26° 289° (WNW) 10:02:59 435.000/436.395/437.385
PRISM 30 May 09:56:33 10:00:41 78° 75° (ENE) 10:04:47 437.425
AAUSAT CUBESAT 2 30 May 10:00:58 10:03:46 18° 291° (WNW) 10:06:35 437.432
Oscar 11 30 May 10:10:07 10:14:12 41° 286° (WNW) 10:18:16 .
FO-29 30 May 10:11:35 10:16:45 84° 76° (ENE) 10:22:06 435.910
EO-88 30 May 10:15:00 10:18:22 33° 98° (E) 10:21:43 145.990 - 145.960
RS-15 30 May 10:27:54 10:39:48 55° 54° (NE) 10:51:02 29.354- 29.394
TIGRISAT 30 May 10:34:49 10:38:57 52° 260° (W) 10:43:13 435.000
HO-68 30 May 10:37:17 10:38:48 11° 305° (NW) 10:40:20 435.675
AO-73 30 May 10:43:14 10:45:57 16° 292° (WNW) 10:48:38 145.935
EO-79 30 May 10:46:26 10:47:26 11° 66° (ENE) 10:48:26 145.935-145.965
AIST 2D 30 May 10:56:57 10:59:56 27° 73° (ENE) 11:02:58 435.315
ESTCUBE 1 30 May 11:07:20 11:08:12 10° 92° (E) 11:09:05 437.505/2401.250
UNISAT 6 30 May 11:09:08 11:12:13 19° 265° (W) 11:15:20 437.425
DELFI C3 30 May 11:15:30 11:18:40 24° 288° (WNW) 11:21:49 145.870
YUBILEINY 30 May 11:20:30 11:28:15 33° 74° (ENE) 11:35:55 435.215
NANOSAT C BR1 30 May 11:25:55 11:29:32 29° 72° (ENE) 11:33:11 145.865
DUCHIFAT 1 30 May 11:34:05 11:37:48 33° 73° (ENE) 11:41:33 145.980
POLYITAN 1 30 May 11:34:16 11:38:12 42° 74° (ENE) 11:42:10 437.675
QB50P2 30 May 11:43:00 11:47:07 60° 75° (ENE) 11:51:16 145.880/145.840
EO-88 30 May 11:50:17 11:51:41 12° 292° (WNW) 11:53:05 145.990 - 145.960
O/OREOS (USA 219) 30 May 12:08:54 12:09:00 10° 57° (ENE) 12:09:07 437.305
LO-87 30 May 12:17:09 12:20:31 41° 285° (WNW) 12:23:54 145.935 - 145.965
EO-79 30 May 12:18:37 12:22:41 51° 260° (W) 12:26:47 145.935-145.965
AIST 2D 30 May 12:31:30 12:33:09 13° 266° (W) 12:34:50 435.315
SPROUT 30 May 12:38:35 12:42:23 30° 98° (E) 12:46:10 437.525
ESTCUBE 1 30 May 12:40:53 12:45:17 55° 285° (WNW) 12:49:39 437.505/2401.250
RS-15 30 May 12:41:06 12:51:45 40° 254° (WSW) 13:01:57 29.354- 29.394
Oscar 19 30 May 12:55:22 12:59:56 32° 70° (ENE) 13:04:30 437.125/150
50 SAT 30 May 12:58:27 13:01:03 21° 97° (E) 13:03:40 437.505
NANOSAT C BR1 30 May 13:02:27 13:05:14 17° 265° (W) 13:08:02 145.865
Gurwin Techsat 1B 30 May 13:08:34 13:12:53 26° 68° (ENE) 13:17:12 435.225
BEESAT 2 30 May 13:08:35 13:09:44 11° 48° (NE) 13:10:52 435.950
BUGSAT 1 30 May 13:09:39 13:13:33 55° 260° (W) 13:17:30 437.445
AO-85 30 May 13:10:27 13:14:33 81° 245° (WSW) 13:18:57 145.980
DUCHIFAT 1 30 May 13:11:01 13:13:31 15° 266° (W) 13:16:01 145.980
POLYITAN 1 30 May 13:12:27 13:14:09 12° 267° (W) 13:15:50 437.675
BEESAT 3 30 May 13:16:35 13:20:17 35° 57° (ENE) 13:23:55 437.485
YUBILEINY 30 May 13:16:50 13:25:08 47° 271° (W) 13:33:24 435.215
VELOX 1 30 May 13:17:18 13:21:42 88° 103° (ESE) 13:26:05 145.980
UKube-1 30 May 13:22:33 13:25:42 20° 96° (E) 13:28:50 .
NO-84 30 May 13:38:29 13:39:38 11° 29° (NNE) 13:40:47 435.350 FM
DX 1 30 May 13:38:31 13:42:43 47° 100° (E) 13:46:53 434.975-435.025
O/OREOS (USA 219) 30 May 13:44:24 13:48:52 67° 253° (WSW) 13:53:17 437.305
ITAMSAT 1 30 May 14:09:34 14:11:34 12° 63° (ENE) 14:13:33 435.822/435.867
SPROUT 30 May 14:15:04 14:18:01 18° 291° (WNW) 14:20:59 437.525
50 SAT 30 May 14:31:39 14:33:42 15° 290° (WNW) 14:35:45 437.505
Oscar 19 30 May 14:34:58 14:39:12 25° 264° (W) 14:43:27 437.125/150
BEESAT 30 May 14:38:54 14:40:22 11° 92° (E) 14:41:50 436.000
BEESAT 2 30 May 14:43:52 14:47:53 63° 243° (WSW) 14:51:50 435.950
Gurwin Techsat 1B 30 May 14:47:55 14:52:38 33° 262° (W) 14:57:22 435.225
AO-7 30 May 14:49:26 14:57:10 46° 65° (ENE) 15:04:56 .
BEESAT 3 30 May 14:55:15 14:57:31 15° 251° (WSW) 14:59:45 437.485
UKube-1 30 May 14:58:01 15:01:40 28° 289° (WNW) 15:05:20 .
NO-84 30 May 15:14:07 15:17:51 83° 49° (NE) 15:21:14 435.350 FM
DX 1 30 May 15:16:36 15:18:26 13° 294° (WNW) 15:20:16 434.975-435.025
MOZHAYETS 4 30 May 15:17:14 15:20:19 17° 94° (E) 15:23:21
ITUPSAT 1 30 May 15:43:14 15:48:01 62° 101° (ESE) 15:52:45 437.325
ITAMSAT 1 30 May 15:45:14 15:50:22 70° 258° (WSW) 15:55:32 435.822/435.867
BEESAT 30 May 16:13:44 16:18:26 59° 286° (WNW) 16:23:08 436.000
CUBESAT XI-V 30 May 16:16:26 16:18:15 12° 92° (E) 16:20:05 437.345
AO-7 30 May 16:42:37 16:49:56 35° 261° (W) 16:57:20 .
MOZHAYETS 4 30 May 16:53:16 16:57:32 36° 288° (WNW) 17:01:45
KKS-1 30 May 17:12:52 17:17:07 44° 100° (E) 17:21:20 437.445
Tancredo 1 30 May 17:16:43 17:18:45 17° 128° (SE) 17:20:48 437.200
ITUPSAT 1 30 May 17:23:26 17:25:15 12° 296° (WNW) 17:27:04 437.325
STARS 30 May 17:31:04 17:34:51 28° 97° (E) 17:38:37 437.465
DOVE 4 30 May 17:41:34 17:46:03 58° 76° (ENE) 17:50:19 437.250
LilacSat-2 30 May 17:45:11 17:48:34 30° 73° (ENE) 17:51:59 437.200
CUBESAT XI-V 30 May 17:51:23 17:55:52 51° 286° (WNW) 18:00:18 437.345
XW-2D 30 May 18:13:19 18:17:06 74° 77° (ENE) 18:20:57 145.860 - 145.880
PCSat 30 May 18:13:25 18:18:49 82° 114° (ESE) 18:24:16 145.827
CUTE-I 30 May 18:13:25 18:18:39 63° 74° (ENE) 18:23:54 437.470
NUDT-PHONESAT 30 May 18:15:10 18:18:48 54° 75° (ENE) 18:22:28 437.300
XW-2B 30 May 18:21:23 18:25:12 89° 254° (WSW) 18:29:03 145.730 - 145.750
KAITUO 1B 30 May 18:30:10 18:33:56 88° 245° (WSW) 18:37:45 145.475/437.950
XW-2F 30 May 18:30:36 18:34:23 68° 260° (W) 18:38:11 145.980 - 146.000
ISS 30 May 18:32:39 18:35:56 84° 136° (SE) 18:39:14 437.550
XW-2C 30 May 18:35:23 18:39:07 55° 260° (W) 18:42:54 145.795 - 145.815
KKS-1 30 May 18:50:54 18:53:15 14° 293° (WNW) 18:55:36 437.445
Tancredo 1 30 May 18:51:32 18:54:17 30° 322° (NW) 18:57:03 437.200
XW-2A 30 May 19:05:42 19:08:31 26° 73° (ENE) 19:11:22 145.665 - 145.685
STARS 30 May 19:07:41 19:10:59 21° 291° (WNW) 19:14:17 437.465
HO-68 30 May 19:08:59 19:16:00 59° 71° (ENE) 19:23:02 435.675
CUBEBUG 2 30 May 19:12:15 19:15:15 19° 69° (ENE) 19:18:19 437.445
AAUSAT CUBESAT 2 30 May 19:13:04 19:14:39 12° 67° (ENE) 19:16:15 437.432
UWE-3 30 May 19:14:13 19:15:45 12° 66° (ENE) 19:17:17 435.000/436.395/437.385
CUTE 1.7 + AOD 2 30 May 19:20:05 19:24:16 56° 75° (ENE) 19:28:29 437.475
LilacSat-2 30 May 19:20:50 19:22:53 14° 267° (W) 19:24:56 437.200
STRAND 1 30 May 19:29:30 19:33:46 26° 96° (E) 19:38:02 437.568
CUTE-I 30 May 19:56:49 19:59:03 13° 268° (W) 20:01:16 437.470
AO-73 30 May 19:58:10 20:01:13 19° 69° (ENE) 20:04:19 145.935
SEEDS 30 May 20:00:07 20:04:21 75° 259° (WSW) 20:08:38 437.485
PCSat 30 May 20:00:18 20:02:50 13° 311° (NW) 20:05:25 145.827
SO-50 30 May 20:05:30 20:08:07 15° 109° (ESE) 20:10:42 436.795
ISS 30 May 20:11:26 20:12:48 12° 332° (NNW) 20:14:11 437.550
ZACube-1 30 May 20:14:11 20:17:59 33° 72° (ENE) 20:21:52 437.345
XW-2A 30 May 20:39:59 20:41:17 12° 266° (W) 20:42:35 145.665 - 145.685
AAUSAT CUBESAT 2 30 May 20:45:39 20:49:40 45° 261° (W) 20:53:42 437.432
UWE-3 30 May 20:47:40 20:51:42 47° 261° (W) 20:55:52 435.000/436.395/437.385
CUBEBUG 2 30 May 20:48:08 20:51:40 27° 264° (W) 20:55:16 437.445
HO-68 30 May 20:58:47 21:04:02 22° 265° (W) 21:09:19 435.675
Oscar 11 30 May 21:00:13 21:04:34 88° 71° (ENE) 21:08:56 .
STRAND 1 30 May 21:08:24 21:12:52 30° 290° (WNW) 21:17:19 437.568
M-CUBED/EXP-1 PRIME 30 May 21:16:45 21:19:47 36° 104° (ESE) 21:22:51 437.505
FO-29 30 May 21:24:47 21:28:53 16° 93° (E) 21:33:08 435.910
AO-73 30 May 21:33:34 21:37:13 28° 264° (W) 21:40:57 145.935
PRISM 30 May 21:43:16 21:45:20 14° 94° (E) 21:47:22 437.425
SO-50 30 May 21:43:45 21:48:10 46° 303° (WNW) 21:52:33 436.795
ZACube-1 30 May 21:51:43 21:54:19 16° 267° (W) 21:56:59 437.345
DELFI C3 30 May 21:55:50 21:59:48 78° 257° (WSW) 22:03:48 145.870
EO-88 30 May 22:21:54 22:25:26 46° 260° (W) 22:28:59 145.990 - 145.960
TIGRISAT 30 May 22:29:42 22:34:08 42° 99° (E) 22:38:35 435.000
LO-87 30 May 22:49:13 22:52:28 35° 74° (ENE) 22:55:42 145.935 - 145.965
UNISAT 6 30 May 23:02:45 23:07:24 73° 283° (WNW) 23:12:05 437.425
FO-29 30 May 23:07:19 23:14:11 80° 285° (WNW) 23:21:47 435.910
PRISM 30 May 23:16:59 23:20:41 35° 288° (WNW) 23:24:22 437.425
SPROUT 30 May 23:29:23 23:31:43 15° 68° (ENE) 23:34:03 437.525
QB50P2 30 May 23:33:15 23:35:22 13° 93° (E) 23:37:29 145.880/145.840
ESTCUBE 1 30 May 23:35:55 23:40:27 82° 77° (ENE) 23:45:00 437.505/2401.250
AIST 2D 30 May 23:58:12 00:01:43 58° 100° (E) 00:05:12 435.315
EO-79 31 May 00:07:05 00:10:56 32° 98° (E) 00:14:45 145.935-145.965
TIGRISAT 31 May 00:07:33 00:10:26 16° 292° (WNW) 00:13:18 435.000
VELOX 1 31 May 00:10:26 00:14:39 46° 74° (ENE) 00:18:52 145.980
UKube-1 31 May 00:15:25 00:16:27 11° 65° (ENE) 00:17:28 .
YUBILEINY 31 May 00:16:16 00:24:16 43° 88° (E) 00:32:19 435.215
DX 1 31 May 00:30:32 00:34:06 25° 70° (ENE) 00:37:40 434.975-435.025
RS-15 31 May 00:44:58 00:56:17 51° 109° (ESE) 01:07:56 29.354- 29.394
NANOSAT C BR1 31 May 00:48:43 00:53:00 84° 283° (WNW) 00:57:15 145.865
JUGNU 31 May 00:54:33 00:57:49 15° 168° (SSE) 01:01:06 437.505
BUGSAT 1 31 May 00:55:13 00:58:46 26° 97° (E) 01:02:19 437.445
FO-29 31 May 00:55:44 00:58:22 12° 298° (WNW) 01:01:04 435.910
DUCHIFAT 1 31 May 00:56:41 01:00:56 76° 283° (WNW) 01:05:10 145.980
POLYITAN 1 31 May 00:58:07 01:02:20 57° 284° (WNW) 01:06:32 437.675
50 SAT 31 May 00:58:26 01:01:52 87° 265° (W) 01:05:19 437.505
SPROUT 31 May 01:03:20 01:07:15 38° 262° (W) 01:11:12 437.525
ISS 31 May 01:04:16 01:06:35 18° 32° (NNE) 01:08:55 437.550
QB50P2 31 May 01:07:16 01:11:16 40° 287° (WNW) 01:15:16 145.880/145.840
Oscar 19 31 May 01:12:02 01:14:54 15° 93° (E) 01:17:43 437.125/150
Tancredo 1 31 May 01:19:05 01:21:57 36° 39° (NE) 01:24:48 437.200
Gurwin Techsat 1B 31 May 01:29:53 01:32:23 13° 92° (E) 01:34:52 435.225
EO-79 31 May 01:43:34 01:46:24 17° 291° (WNW) 01:49:14 145.935-145.965
UKube-1 31 May 01:47:43 01:51:56 55° 259° (W) 01:56:10 .
VELOX 1 31 May 01:49:25 01:51:17 12° 267° (W) 01:53:10 145.980
DX 1 31 May 02:06:47 02:10:11 22° 264° (W) 02:13:35 434.975-435.025
YUBILEINY 31 May 02:13:15 02:21:02 36° 285° (WNW) 02:28:54 435.215
O/OREOS (USA 219) 31 May 02:14:23 02:17:56 22° 101° (E) 02:21:29 437.305
MOZHAYETS 4 31 May 02:17:12 02:18:30 11° 65° (ENE) 02:19:49
BUGSAT 1 31 May 02:30:51 02:33:55 20° 290° (WNW) 02:36:59 437.445
ISS 31 May 02:40:06 02:43:12 40° 228° (SW) 02:46:18 437.550
JUGNU 31 May 02:41:54 02:46:09 20° 178° (S) 02:50:24 437.505
ITUPSAT 1 31 May 02:46:01 02:50:33 46° 73° (ENE) 02:55:07 437.325
Oscar 19 31 May 02:49:28 02:54:27 51° 287° (WNW) 02:59:24 437.125/150
Tancredo 1 31 May 02:55:50 02:57:25 13° 233° (SW) 02:58:58 437.200
AO-7 31 May 02:57:11 03:02:13 17° 94° (E) 03:07:12 .
RS-15 31 May 02:57:25 03:08:51 46° 309° (NW) 03:20:38 29.354- 29.394
BEESAT 3 31 May 03:03:56 03:06:09 15° 109° (ESE) 03:08:25 437.485
PCSat 31 May 03:05:39 03:10:20 29° 56° (NE) 03:14:59 145.827
Gurwin Techsat 1B 31 May 03:07:25 03:12:39 60° 286° (WNW) 03:17:52 435.225
BEESAT 31 May 03:15:50 03:20:35 81° 258° (WSW) 03:25:23 436.000
AO-85 31 May 03:21:10 03:25:26 86° 114° (ESE) 03:29:28 145.980
SRMSAT 31 May 03:31:54 03:35:16 15° 168° (SSE) 03:38:38 437.500
